DateTime,Index
2002022606,0.0
2002022612,0.0
2002022618,0.0
2002022700,0.0
2002022706,1225.0
2002022712,1225.0
2002022718,1225.0
2002022800,1225.0
2002022806,1225.0
2002022812,1600.0
2002022818,2025.0
2002030100,2025.0
2002030106,4900.0
2002030112,4900.0
2002030118,4900.0
2002030200,4900.0
2002030206,5625.0
2002030212,8100.0
2002030218,10000.0
2002030300,10000.0
2002030306,10000.0
2002030312,10000.0
2002030318,11025.0
2002030400,13225.0
2002030406,13225.0
2002030412,14400.0
2002030418,15625.0
2002030500,16900.0
2002030506,19600.0
2002030512,19600.0
2002030518,19600.0
2002030600,16900.0
2002030606,15625.0
2002030612,14400.0
2002030618,13225.0
2002030700,9025.0
2002030706,5625.0
2002030712,4225.0
2002030718,3025.0
2002030800,1225.0
2002030806,0.0
2002030812,0.0
